20040128,000001,1918623,35.859833,-124.275000,13.807,32.525,NaN,NaN
20040128,000031,1918653,35.859000,-124.273667,13.874,32.542,NaN,NaN
20040128,000101,1918683,35.858167,-124.272167,13.926,32.558,NaN,NaN
20040128,000131,1918713,35.857333,-124.270667,13.976,32.573,NaN,NaN
20040128,000201,1918743,35.856667,-124.269333,14.010,32.582,NaN,NaN
20040128,000231,1918773,35.855833,-124.267833,14.054,32.593,NaN,NaN
20040128,000301,1918803,35.855000,-124.266500,14.102,32.606,NaN,NaN
20040128,000331,1918833,35.854167,-124.265000,14.131,32.616,NaN,NaN
20040128,000401,1918863,35.853500,-124.263500,14.124,32.619,NaN,NaN
20040128,000431,1918893,35.852667,-124.262167,14.090,32.611,NaN,NaN
20040128,000501,1918923,35.851833,-124.260667,14.038,32.600,NaN,NaN
20040128,000531,1918953,35.851000,-124.259333,13.989,32.588,NaN,NaN
20040128,000601,1918983,35.850167,-124.257833,13.957,32.575,NaN,NaN
20040128,000631,1919013,35.849333,-124.256333,13.931,32.569,NaN,NaN
20040128,000701,1919043,35.848500,-124.255000,13.902,32.559,NaN,NaN
20040128,000731,1919073,35.847667,-124.253500,13.873,32.553,NaN,NaN
20040128,000801,1919103,35.846833,-124.252167,13.850,32.546,NaN,NaN
20040128,000831,1919133,35.846167,-124.250667,13.832,32.541,NaN,NaN
20040128,000901,1919163,35.845333,-124.249167,13.816,32.537,NaN,NaN
20040128,000931,1919193,35.844500,-124.247833,13.804,32.534,NaN,NaN
20040128,001001,1919223,35.843667,-124.246333,13.799,32.532,NaN,NaN
20040128,001031,1919253,35.842833,-124.244833,13.796,32.531,NaN,NaN
20040128,001101,1919283,35.842000,-124.243500,13.795,32.532,NaN,NaN
20040128,001131,1919313,35.841167,-124.242167,13.793,32.534,NaN,NaN
20040128,001201,1919343,35.840500,-124.240667,13.797,32.535,NaN,NaN
20040128,001231,1919373,35.839500,-124.239333,13.801,32.538,NaN,NaN
20040128,001301,1919403,35.838833,-124.237833,13.800,32.541,NaN,NaN
20040128,001331,1919433,35.838000,-124.236333,13.796,32.542,NaN,NaN
20040128,001401,1919463,35.837167,-124.235000,13.789,32.542,NaN,NaN
20040128,001431,1919493,35.836333,-124.233500,13.780,32.540,NaN,NaN
20040128,001501,1919523,35.835333,-124.232167,13.763,32.539,NaN,NaN
20040128,001531,1919553,35.834500,-124.230833,13.744,32.538,NaN,NaN
20040128,001601,1919583,35.833833,-124.229333,13.732,32.537,NaN,NaN
20040128,001631,1919613,35.833000,-124.227833,13.725,32.536,NaN,NaN
20040128,001701,1919643,35.832167,-124.226500,13.723,32.536,NaN,NaN
20040128,001731,1919673,35.831167,-124.225000,13.721,32.538,NaN,NaN
20040128,001801,1919703,35.830333,-124.223667,13.718,32.539,NaN,NaN
20040128,001831,1919733,35.829500,-124.222167,13.719,32.540,NaN,NaN
20040128,001901,1919763,35.828833,-124.220667,13.718,32.542,NaN,NaN
20040128,001931,1919793,35.827833,-124.219333,13.718,32.544,NaN,NaN
20040128,002001,1919823,35.827000,-124.218000,13.716,32.546,NaN,NaN
20040128,002031,1919853,35.826333,-124.216500,13.711,32.547,NaN,NaN
20040128,002101,1919883,35.825500,-124.215000,13.705,32.548,NaN,NaN
20040128,002131,1919913,35.824667,-124.213667,13.696,32.548,NaN,NaN
20040128,002201,1919943,35.823833,-124.212167,13.687,32.549,NaN,NaN
20040128,002231,1919973,35.823167,-124.210667,13.674,32.550,NaN,NaN
20040128,002301,1920003,35.822333,-124.209167,13.660,32.550,NaN,NaN
20040128,002331,1920033,35.821667,-124.207667,13.655,32.550,NaN,NaN
20040128,002401,1920063,35.821000,-124.206167,13.654,32.551,NaN,NaN
20040128,002431,1920093,35.820167,-124.204667,13.646,32.554,NaN,NaN
20040128,002501,1920123,35.819500,-124.203167,13.640,32.556,NaN,NaN
20040128,002531,1920153,35.818833,-124.201833,13.636,32.555,NaN,NaN
20040128,002601,1920183,35.818000,-124.200333,13.623,32.558,NaN,NaN
20040128,002631,1920213,35.817333,-124.198667,13.611,32.558,NaN,NaN
20040128,002701,1920243,35.816500,-124.197167,13.600,32.558,NaN,NaN
20040128,002731,1920273,35.815833,-124.195667,13.581,32.559,NaN,NaN
20040128,002801,1920303,35.815167,-124.194167,13.557,32.557,NaN,NaN
20040128,002831,1920333,35.814333,-124.192667,13.535,32.555,NaN,NaN
20040128,002901,1920363,35.813667,-124.191167,13.513,32.551,NaN,NaN
20040128,002931,1920393,35.813000,-124.189667,13.495,32.549,NaN,NaN
20040128,003001,1920423,35.812167,-124.188167,13.476,32.546,NaN,NaN
20040128,003031,1920453,35.811500,-124.186833,13.438,32.543,NaN,NaN
20040128,003101,1920483,35.810667,-124.185333,13.412,32.537,NaN,NaN
20040128,003131,1920513,35.810000,-124.183833,13.391,32.535,NaN,NaN
20040128,003201,1920543,35.809333,-124.182333,13.377,32.534,NaN,NaN
20040128,003231,1920573,35.808500,-124.180833,13.356,32.535,NaN,NaN
20040128,003301,1920603,35.807833,-124.179333,13.346,32.534,NaN,NaN
20040128,003331,1920633,35.807167,-124.177833,13.339,32.539,NaN,NaN
20040128,003401,1920663,35.806333,-124.176333,13.337,32.541,NaN,NaN
20040128,003431,1920693,35.805667,-124.175000,13.339,32.547,NaN,NaN
20040128,003501,1920723,35.805000,-124.173500,13.342,32.555,NaN,NaN
20040128,003531,1920753,35.804167,-124.172000,13.346,32.563,NaN,NaN
20040128,003601,1920783,35.803500,-124.170500,13.347,32.568,NaN,NaN
20040128,003631,1920813,35.802833,-124.169000,13.341,32.578,NaN,NaN
20040128,003701,1920843,35.802000,-124.167500,13.335,32.586,NaN,NaN
20040128,003731,1920873,35.801333,-124.166000,13.324,32.596,NaN,NaN
20040128,003801,1920903,35.800500,-124.164500,13.311,32.606,NaN,NaN
20040128,003831,1920933,35.799833,-124.163000,13.294,32.617,NaN,NaN
20040128,003901,1920963,35.799167,-124.161667,13.276,32.625,NaN,NaN
20040128,003931,1920993,35.798500,-124.160000,13.252,32.634,NaN,NaN
20040128,004001,1921023,35.797833,-124.158500,13.227,32.642,NaN,NaN
20040128,004031,1921053,35.797000,-124.157000,13.201,32.650,NaN,NaN
20040128,004101,1921083,35.796333,-124.155667,13.174,32.659,NaN,NaN
20040128,004131,1921113,35.795667,-124.154167,13.139,32.673,NaN,NaN
20040128,004201,1921143,35.795000,-124.152667,13.116,32.679,NaN,NaN
20040128,004231,1921173,35.794333,-124.151167,13.100,32.684,NaN,NaN
20040128,004301,1921203,35.793500,-124.149667,13.088,32.686,NaN,NaN
20040128,004331,1921233,35.792833,-124.148167,13.075,32.688,NaN,NaN
20040128,004401,1921263,35.792167,-124.146667,13.062,32.690,NaN,NaN
20040128,004431,1921293,35.791500,-124.145333,13.050,32.694,NaN,NaN
20040128,004501,1921323,35.790833,-124.143833,13.034,32.700,NaN,NaN
20040128,004531,1921353,35.790167,-124.142333,13.025,32.704,NaN,NaN
20040128,004601,1921383,35.789500,-124.140833,13.020,32.707,NaN,NaN
20040128,004631,1921413,35.788833,-124.139333,13.018,32.710,NaN,NaN
20040128,004701,1921443,35.788167,-124.137833,13.010,32.716,NaN,NaN
20040128,004731,1921473,35.787500,-124.136333,13.003,32.720,NaN,NaN
20040128,004801,1921503,35.786667,-124.135000,12.995,32.725,NaN,NaN
20040128,004831,1921533,35.786000,-124.133500,12.990,32.727,NaN,NaN
20040128,004901,1921563,35.785333,-124.132000,12.985,32.732,NaN,NaN
20040128,004931,1921593,35.784833,-124.130500,12.979,32.738,NaN,NaN
20040128,005001,1921623,35.784167,-124.129000,12.972,32.745,NaN,NaN
20040128,005031,1921653,35.783333,-124.127500,12.961,32.754,NaN,NaN
20040128,005101,1921683,35.782667,-124.126000,12.954,32.760,NaN,NaN
20040128,005131,1921713,35.782000,-124.124500,12.944,32.769,NaN,NaN
20040128,005201,1921743,35.781333,-124.123000,12.935,32.775,NaN,NaN
20040128,005231,1921773,35.780667,-124.121500,12.928,32.780,NaN,NaN
20040128,005301,1921803,35.780000,-124.120000,12.921,32.785,NaN,NaN
20040128,005331,1921833,35.779333,-124.118500,12.915,32.789,NaN,NaN
20040128,005401,1921863,35.778667,-124.117000,12.909,32.795,NaN,NaN
20040128,005431,1921893,35.778000,-124.115500,12.904,32.800,NaN,NaN
20040128,005501,1921923,35.777167,-124.114000,12.901,32.803,NaN,NaN
20040128,005531,1921953,35.776500,-124.112500,12.902,32.803,NaN,NaN
20040128,005601,1921983,35.776000,-124.111000,12.902,32.801,NaN,NaN
20040128,005631,1922013,35.775167,-124.109500,12.900,32.801,NaN,NaN
20040128,005701,1922043,35.774500,-124.108000,12.901,32.800,NaN,NaN
20040128,005731,1922073,35.773833,-124.106500,12.896,32.802,NaN,NaN
20040128,005801,1922103,35.773167,-124.105000,12.895,32.802,NaN,NaN
20040128,005831,1922133,35.772667,-124.103500,12.892,32.804,NaN,NaN
20040128,005901,1922163,35.772000,-124.102000,12.892,32.806,NaN,NaN
20040128,005931,1922193,35.771167,-124.100667,12.887,32.812,NaN,NaN
20040128,010001,1922223,35.770500,-124.099167,12.884,32.815,NaN,NaN
20040128,010031,1922253,35.770000,-124.097500,12.882,32.816,NaN,NaN
20040128,010101,1922283,35.769167,-124.096167,12.881,32.817,NaN,NaN
20040128,010131,1922313,35.768500,-124.094667,12.879,32.817,NaN,NaN
20040128,010201,1922343,35.768000,-124.093000,12.882,32.817,NaN,NaN
20040128,010231,1922373,35.767167,-124.091667,12.886,32.819,NaN,NaN
20040128,010301,1922403,35.766500,-124.090167,12.886,32.822,NaN,NaN
20040128,010331,1922433,35.765833,-124.088667,12.883,32.825,NaN,NaN
20040128,010401,1922463,35.765167,-124.087167,12.881,32.825,NaN,NaN
20040128,010431,1922493,35.764500,-124.085667,12.881,32.826,NaN,NaN
20040128,010501,1922523,35.763833,-124.084167,12.881,32.827,NaN,NaN
20040128,010531,1922553,35.763167,-124.082833,12.880,32.828,NaN,NaN
20040128,010601,1922583,35.762500,-124.081333,12.879,32.828,NaN,NaN
20040128,010631,1922613,35.761833,-124.079833,12.878,32.829,NaN,NaN
20040128,010701,1922643,35.761333,-124.078167,12.877,32.831,NaN,NaN
20040128,010731,1922673,35.760667,-124.076833,12.873,32.834,NaN,NaN
20040128,010801,1922703,35.759833,-124.075333,12.871,32.834,NaN,NaN
20040128,010831,1922733,35.759167,-124.073833,12.868,32.836,NaN,NaN
20040128,010901,1922763,35.758500,-124.072333,12.856,32.839,NaN,NaN
20040128,010931,1922793,35.757833,-124.070833,12.854,32.838,NaN,NaN
20040128,011001,1922823,35.757167,-124.069500,12.854,32.836,NaN,NaN
20040128,011031,1922853,35.756500,-124.068000,12.854,32.834,NaN,NaN
20040128,011101,1922883,35.755833,-124.066500,12.852,32.834,NaN,NaN
20040128,011131,1922913,35.755333,-124.065000,12.853,32.832,NaN,NaN
20040128,011201,1922943,35.754667,-124.063500,12.853,32.831,NaN,NaN
20040128,011231,1922973,35.754000,-124.062000,12.854,32.827,NaN,NaN
20040128,011301,1923003,35.753333,-124.060500,12.854,32.825,NaN,NaN
20040128,011331,1923033,35.752833,-124.058833,12.854,32.824,NaN,NaN
20040128,011401,1923063,35.752167,-124.057333,12.855,32.823,NaN,NaN
20040128,011431,1923093,35.751500,-124.055833,12.856,32.821,NaN,NaN
20040128,011501,1923123,35.750833,-124.054333,12.856,32.821,NaN,NaN
20040128,011531,1923153,35.750167,-124.052833,12.857,32.819,NaN,NaN
20040128,011601,1923183,35.749500,-124.051333,12.858,32.817,NaN,NaN
20040128,011631,1923213,35.749000,-124.049833,12.858,32.817,NaN,NaN
20040128,011701,1923243,35.748333,-124.048333,12.857,32.818,NaN,NaN
20040128,011731,1923273,35.747667,-124.046833,12.857,32.819,NaN,NaN
20040128,011801,1923303,35.747000,-124.045333,12.856,32.820,NaN,NaN
20040128,011831,1923333,35.746333,-124.043667,12.854,32.823,NaN,NaN
20040128,011901,1923363,35.745667,-124.042167,12.850,32.824,NaN,NaN
20040128,011931,1923393,35.745000,-124.040667,12.849,32.824,NaN,NaN
20040128,012001,1923423,35.744500,-124.039000,12.850,32.823,NaN,NaN
20040128,012031,1923453,35.743833,-124.037500,12.850,32.825,NaN,NaN
20040128,012101,1923483,35.743167,-124.036000,12.847,32.827,NaN,NaN
20040128,012131,1923513,35.742500,-124.034500,12.838,32.829,NaN,NaN
20040128,012201,1923543,35.741833,-124.033000,12.837,32.829,NaN,NaN
20040128,012231,1923573,35.741167,-124.031500,12.833,32.830,NaN,NaN
20040128,012301,1923603,35.740667,-124.030000,12.838,32.827,NaN,NaN
20040128,012331,1923633,35.740000,-124.028333,12.845,32.824,NaN,NaN
20040128,012401,1923663,35.739333,-124.026833,12.852,32.822,NaN,NaN
20040128,012431,1923693,35.738667,-124.025333,12.859,32.820,NaN,NaN
20040128,012501,1923723,35.738167,-124.023833,12.863,32.817,NaN,NaN
20040128,012531,1923753,35.737333,-124.022333,12.868,32.814,NaN,NaN
20040128,012601,1923783,35.736667,-124.020833,12.871,32.813,NaN,NaN
20040128,012631,1923813,35.736167,-124.019333,12.870,32.814,NaN,NaN
20040128,012701,1923843,35.735500,-124.017833,12.869,32.811,NaN,NaN
20040128,012731,1923873,35.734833,-124.016333,12.872,32.810,NaN,NaN
20040128,012801,1923903,35.734167,-124.014833,12.874,32.808,NaN,NaN
20040128,012831,1923933,35.733500,-124.013167,12.876,32.808,NaN,NaN
20040128,012901,1923963,35.732833,-124.011667,12.878,32.806,NaN,NaN
20040128,012931,1923993,35.732167,-124.010167,12.880,32.806,NaN,NaN
20040128,013001,1924023,35.731500,-124.008667,12.883,32.803,NaN,NaN
20040128,013031,1924053,35.730833,-124.007167,12.882,32.801,NaN,NaN
20040128,013101,1924083,35.730167,-124.005667,12.883,32.798,NaN,NaN
20040128,013131,1924113,35.729500,-124.004167,12.882,32.795,NaN,NaN
20040128,013201,1924143,35.728833,-124.002500,12.880,32.794,NaN,NaN
20040128,013231,1924173,35.728167,-124.001000,12.880,32.793,NaN,NaN
20040128,013301,1924203,35.727500,-123.999500,12.879,32.791,NaN,NaN
20040128,013331,1924233,35.726833,-123.998000,12.879,32.791,NaN,NaN
20040128,013401,1924263,35.726167,-123.996500,12.882,32.789,NaN,NaN
20040128,013431,1924293,35.725500,-123.994833,12.884,32.787,NaN,NaN
20040128,013501,1924323,35.724833,-123.993333,12.884,32.786,NaN,NaN
20040128,013531,1924353,35.724000,-123.991833,12.882,32.785,NaN,NaN
20040128,013601,1924383,35.723333,-123.990333,12.881,32.784,NaN,NaN
20040128,013631,1924413,35.722667,-123.988833,12.882,32.782,NaN,NaN
20040128,013701,1924443,35.722000,-123.987333,12.880,32.782,NaN,NaN
20040128,013731,1924473,35.721333,-123.985833,12.878,32.782,NaN,NaN
20040128,013801,1924503,35.720667,-123.984333,12.878,32.781,NaN,NaN
20040128,013831,1924533,35.720000,-123.982833,12.876,32.781,NaN,NaN
20040128,013901,1924563,35.719333,-123.981333,12.875,32.780,NaN,NaN
20040128,013931,1924593,35.718667,-123.979667,12.874,32.780,NaN,NaN
20040128,014001,1924623,35.718000,-123.978167,12.873,32.782,NaN,NaN
20040128,014031,1924653,35.717167,-123.976667,12.871,32.782,NaN,NaN
20040128,014101,1924683,35.716500,-123.975167,12.871,32.783,NaN,NaN
20040128,014131,1924713,35.715833,-123.973667,12.868,32.783,NaN,NaN
20040128,014201,1924743,35.715167,-123.972167,12.868,32.784,NaN,NaN
20040128,014231,1924773,35.714500,-123.970667,12.866,32.784,NaN,NaN
20040128,014301,1924803,35.713833,-123.969000,12.863,32.786,NaN,NaN
20040128,014331,1924833,35.713000,-123.967500,12.859,32.786,NaN,NaN
20040128,014401,1924863,35.712333,-123.966000,12.854,32.787,NaN,NaN
20040128,014431,1924893,35.711667,-123.964500,12.847,32.790,NaN,NaN
20040128,014501,1924923,35.711000,-123.963000,12.843,32.792,NaN,NaN
20040128,014531,1924953,35.710333,-123.961500,12.839,32.797,NaN,NaN
20040128,014601,1924983,35.709500,-123.960000,12.837,32.799,NaN,NaN
20040128,014631,1925013,35.709000,-123.958500,12.835,32.801,NaN,NaN
20040128,014701,1925043,35.708167,-123.957000,12.831,32.804,NaN,NaN
20040128,014731,1925073,35.707500,-123.955500,12.831,32.807,NaN,NaN
20040128,014801,1925103,35.706667,-123.954000,12.826,32.810,NaN,NaN
20040128,014831,1925133,35.706000,-123.952500,12.824,32.812,NaN,NaN
20040128,014901,1925163,35.705333,-123.951000,12.823,32.814,NaN,NaN
20040128,014931,1925193,35.704667,-123.949500,12.822,32.815,NaN,NaN
20040128,015001,1925223,35.703833,-123.947833,12.820,32.818,NaN,NaN
20040128,015031,1925253,35.703167,-123.946333,12.819,32.819,NaN,NaN
20040128,015101,1925283,35.702500,-123.944833,12.815,32.823,NaN,NaN
20040128,015131,1925313,35.701667,-123.943333,12.813,32.825,NaN,NaN
20040128,015201,1925343,35.701000,-123.941833,12.816,32.826,NaN,NaN
20040128,015231,1925373,35.700333,-123.940333,12.817,32.829,NaN,NaN
20040128,015301,1925403,35.699500,-123.938833,12.815,32.833,NaN,NaN
20040128,015331,1925433,35.698833,-123.937167,12.811,32.836,NaN,NaN
20040128,015401,1925463,35.698167,-123.935667,12.807,32.842,NaN,NaN
20040128,015431,1925493,35.697500,-123.934167,12.808,32.844,NaN,NaN
20040128,015501,1925523,35.696667,-123.932667,12.811,32.844,NaN,NaN
20040128,015531,1925553,35.696000,-123.931167,12.814,32.843,NaN,NaN
20040128,015601,1925583,35.695333,-123.929500,12.814,32.844,NaN,NaN
20040128,015631,1925613,35.694667,-123.928000,12.815,32.845,NaN,NaN
20040128,015701,1925643,35.693833,-123.926500,12.814,32.846,NaN,NaN
20040128,015731,1925673,35.693167,-123.925000,12.812,32.847,NaN,NaN
20040128,015801,1925703,35.692500,-123.923500,12.814,32.847,NaN,NaN
20040128,015831,1925733,35.691667,-123.922000,12.823,32.845,NaN,NaN
20040128,015901,1925763,35.691000,-123.920500,12.829,32.845,NaN,NaN
20040128,015931,1925793,35.690333,-123.919000,12.831,32.847,NaN,NaN
20040128,020001,1925823,35.689667,-123.917500,12.832,32.849,NaN,NaN
20040128,020031,1925853,35.688833,-123.916000,12.833,32.849,NaN,NaN
20040128,020101,1925883,35.688167,-123.914333,12.834,32.850,NaN,NaN
20040128,020131,1925913,35.687500,-123.912833,12.830,32.854,NaN,NaN
20040128,020201,1925943,35.686667,-123.911333,12.825,32.856,NaN,NaN
20040128,020231,1925973,35.686000,-123.909833,12.861,32.836,NaN,NaN
20040128,020301,1926003,35.685167,-123.908333,12.896,32.813,NaN,NaN
20040128,020331,1926033,35.684500,-123.906833,12.907,32.794,NaN,NaN
20040128,020401,1926063,35.683833,-123.905167,12.914,32.779,NaN,NaN
20040128,020431,1926093,35.683167,-123.903667,12.919,32.769,NaN,NaN
20040128,020501,1926123,35.682500,-123.902333,12.923,32.762,NaN,NaN
20040128,020531,1926153,35.681833,-123.900833,12.923,32.757,NaN,NaN
20040128,020601,1926183,35.681167,-123.899333,12.929,32.751,NaN,NaN
20040128,020631,1926213,35.680500,-123.897833,12.938,32.747,NaN,NaN
20040128,020701,1926243,35.679833,-123.896333,12.939,32.744,NaN,NaN
20040128,020731,1926273,35.679167,-123.894667,12.940,32.743,NaN,NaN
20040128,020801,1926303,35.678500,-123.893333,12.936,32.743,NaN,NaN
20040128,020831,1926333,35.678000,-123.892000,12.934,32.742,NaN,NaN
20040128,020901,1926363,35.677667,-123.891000,12.936,32.742,NaN,NaN
20040128,020931,1926393,35.677500,-123.889833,12.936,32.742,NaN,NaN
20040128,021001,1926423,35.677333,-123.888833,12.941,32.741,NaN,NaN
20040128,021031,1926453,35.677000,-123.888000,12.948,32.740,NaN,NaN
20040128,021101,1926483,35.676500,-123.887000,12.954,32.739,NaN,NaN
20040128,021131,1926513,35.676000,-123.886167,12.960,32.736,NaN,NaN
20040128,021201,1926543,35.675667,-123.885167,12.964,32.731,NaN,NaN
20040128,021231,1926573,35.675167,-123.884167,12.965,32.727,NaN,NaN
20040128,021301,1926603,35.674833,-123.883167,12.963,32.724,NaN,NaN
20040128,021331,1926633,35.674333,-123.882333,12.964,32.722,NaN,NaN
20040128,021401,1926663,35.673833,-123.881333,12.962,32.719,NaN,NaN
20040128,021431,1926693,35.673333,-123.880333,12.961,32.717,NaN,NaN
20040128,021501,1926723,35.673000,-123.879333,12.962,32.714,NaN,NaN
20040128,021531,1926753,35.672500,-123.878500,12.961,32.712,NaN,NaN
20040128,021601,1926783,35.672167,-123.877500,12.960,32.708,NaN,NaN
20040128,021631,1926813,35.671667,-123.876500,12.958,32.708,NaN,NaN
20040128,021701,1926843,35.671167,-123.875667,12.956,32.706,NaN,NaN
20040128,021731,1926873,35.670667,-123.874667,12.957,32.704,NaN,NaN
20040128,021801,1926903,35.670167,-123.873667,12.955,32.703,NaN,NaN
20040128,021831,1926933,35.669667,-123.872667,12.954,32.702,NaN,NaN
20040128,021901,1926963,35.669333,-123.871667,12.953,32.701,NaN,NaN
20040128,021931,1926993,35.668833,-123.870667,12.953,32.700,NaN,NaN
20040128,022001,1927023,35.668333,-123.869667,12.952,32.699,NaN,NaN
20040128,022031,1927053,35.667833,-123.868667,12.953,32.698,NaN,NaN
20040128,022101,1927083,35.667333,-123.867667,12.953,32.698,NaN,NaN
20040128,022131,1927113,35.667000,-123.866667,12.954,32.697,NaN,NaN
20040128,022201,1927143,35.666500,-123.865667,12.952,32.697,NaN,NaN
20040128,022231,1927173,35.666000,-123.864833,12.951,32.696,NaN,NaN
20040128,022301,1927203,35.665500,-123.863833,12.951,32.696,NaN,NaN
20040128,022331,1927233,35.665000,-123.862833,12.951,32.696,NaN,NaN
20040128,022401,1927263,35.664667,-123.861833,12.951,32.697,NaN,NaN
20040128,022431,1927293,35.664167,-123.860833,12.951,32.697,NaN,NaN
20040128,022501,1927323,35.663667,-123.859833,12.951,32.697,NaN,NaN
20040128,022531,1927353,35.663167,-123.859000,12.951,32.698,NaN,NaN
20040128,022601,1927383,35.662667,-123.858000,12.952,32.698,NaN,NaN
20040128,022631,1927413,35.662167,-123.857000,12.955,32.699,NaN,NaN
20040128,022701,1927443,35.661667,-123.856000,12.956,32.700,NaN,NaN
20040128,022731,1927473,35.661167,-123.855000,12.957,32.701,NaN,NaN
20040128,022801,1927503,35.660667,-123.854000,12.957,32.702,NaN,NaN
20040128,022831,1927533,35.660167,-123.853000,12.957,32.702,NaN,NaN
20040128,022901,1927563,35.659667,-123.852000,12.957,32.704,NaN,NaN
20040128,022931,1927593,35.659167,-123.851000,12.957,32.704,NaN,NaN
20040128,023001,1927623,35.658833,-123.850000,12.957,32.705,NaN,NaN
20040128,023031,1927653,35.658333,-123.849167,12.957,32.706,NaN,NaN
20040128,023101,1927683,35.657833,-123.848167,12.959,32.707,NaN,NaN
20040128,023131,1927713,35.657333,-123.847167,12.959,32.707,NaN,NaN
20040128,023201,1927743,35.656833,-123.846333,12.957,32.711,NaN,NaN
20040128,023231,1927773,35.656333,-123.845333,12.957,32.711,NaN,NaN
20040128,023301,1927803,35.655833,-123.844333,12.954,32.714,NaN,NaN
20040128,023331,1927833,35.655333,-123.843333,12.954,32.715,NaN,NaN
20040128,023401,1927863,35.654833,-123.842333,12.953,32.717,NaN,NaN
20040128,023431,1927893,35.654333,-123.841500,12.954,32.718,NaN,NaN
20040128,023501,1927923,35.653833,-123.840500,12.953,32.720,NaN,NaN
20040128,023531,1927953,35.653333,-123.839667,12.952,32.721,NaN,NaN
20040128,023601,1927983,35.653000,-123.838667,12.950,32.723,NaN,NaN
20040128,023631,1928013,35.652500,-123.837667,12.949,32.724,NaN,NaN
20040128,023701,1928043,35.652000,-123.836833,12.948,32.725,NaN,NaN
20040128,023731,1928073,35.651333,-123.835833,12.947,32.726,NaN,NaN
20040128,023801,1928103,35.651000,-123.835000,12.946,32.727,NaN,NaN
20040128,023831,1928133,35.650667,-123.834000,12.946,32.728,NaN,NaN
20040128,023901,1928163,35.650333,-123.833000,12.945,32.730,NaN,NaN
20040128,023931,1928193,35.650000,-123.832000,12.945,32.730,NaN,NaN
20040128,024001,1928223,35.649500,-123.831167,12.941,32.731,NaN,NaN
20040128,024031,1928253,35.649000,-123.830333,12.939,32.732,NaN,NaN
20040128,024101,1928283,35.648500,-123.829333,12.935,32.734,NaN,NaN
20040128,024131,1928313,35.648000,-123.828333,12.932,32.735,NaN,NaN
20040128,024201,1928343,35.647500,-123.827333,12.930,32.736,NaN,NaN
20040128,024231,1928373,35.646833,-123.826333,12.928,32.738,NaN,NaN
20040128,024301,1928403,35.646167,-123.825167,12.924,32.739,NaN,NaN
20040128,024331,1928433,35.645667,-123.823833,12.919,32.741,NaN,NaN
20040128,024401,1928463,35.645000,-123.822500,12.916,32.741,NaN,NaN
20040128,024431,1928493,35.644333,-123.821167,12.912,32.743,NaN,NaN
20040128,024501,1928523,35.643667,-123.819833,12.909,32.742,NaN,NaN
20040128,024531,1928553,35.642833,-123.818500,12.906,32.744,NaN,NaN
20040128,024601,1928583,35.642167,-123.817000,12.905,32.744,NaN,NaN
20040128,024631,1928613,35.641500,-123.815667,12.903,32.744,NaN,NaN
20040128,024701,1928643,35.640833,-123.814167,12.901,32.744,NaN,NaN
20040128,024731,1928673,35.640000,-123.812667,12.898,32.746,NaN,NaN
20040128,024801,1928703,35.639333,-123.811333,12.896,32.746,NaN,NaN
20040128,024831,1928733,35.638667,-123.809833,12.896,32.746,NaN,NaN
20040128,024901,1928763,35.637833,-123.808333,12.896,32.746,NaN,NaN
20040128,024931,1928793,35.637167,-123.806833,12.896,32.746,NaN,NaN
20040128,025001,1928823,35.636500,-123.805500,12.897,32.746,NaN,NaN
20040128,025031,1928853,35.635833,-123.804000,12.898,32.747,NaN,NaN
20040128,025101,1928883,35.635167,-123.802500,12.898,32.748,NaN,NaN
20040128,025131,1928913,35.634333,-123.801000,12.902,32.748,NaN,NaN
20040128,025201,1928943,35.633667,-123.799667,12.910,32.747,NaN,NaN
20040128,025231,1928973,35.632833,-123.798167,12.909,32.749,NaN,NaN
20040128,025301,1929003,35.632167,-123.796667,12.905,32.749,NaN,NaN